Wind_Speed
25 26 27 29 30 31 31 32 32 33 34 35 37 38 39 40 41 42 42 42 42 42 42 42 42 42 42 43 42 42 42 42 42 43 43 43 43 44 44 45 45 45 46
26 27 28 29 29 29 30 30 31 31 33 34 35 37 38 40 41 42 43 43 43 43 43 43 43 43 43 43 44 44 45 45 46 46 47 47 48 48 49 49 50 50 50
26 27 28 28 29 30 30 31 31 32 33 35 37 39 40 42 43 44 44 44 44 44 44 44 44 45 45 46 46 47 48 49 50 51 51 52 53 54 55 55 56 56 56
26 27 28 29 30 30 31 31 32 33 35 37 39 41 42 43 44 44 44 44 44 44 45 45 46 47 48 49 50 51 52 53 54 56 57 58 59 59 60 61 61 62 62
27 28 29 30 31 31 32 33 34 36 38 40 41 42 43 43 44 44 44 44 45 46 47 48 49 51 52 53 55 56 57 58 59 61 62 63 63 64 65 66 67 67 67
29 30 30 31 31 32 34 35 37 39 40 41 41 42 43 43 44 44 45 46 48 49 50 52 54 55 57 59 60 61 62 63 64 65 65 66 67 68 68 69 70 71 72
31 31 32 32 33 34 36 38 40 41 41 41 42 42 44 44 45 46 47 49 51 53 55 57 59 61 62 63 64 65 66 66 67 68 69 69 70 70 71 72 73 73 74
32 33 33 34 35 37 39 40 42 42 43 43 43 43 44 45 47 48 51 53 55 57 60 62 63 64 65 66 67 67 68 69 69 70 71 72 73 73 74 75 75 76 77
34 35 36 37 38 40 41 42 43 45 46 46 46 47 47 47 47 48 52 56 58 60 62 64 65 66 67 68 68 69 70 71 72 74 75 77 78 79 80 81 81 82 82
36 37 38 39 41 42 43 44 45 47 47 48 49 50 52 54 54 53 54 57 59 61 63 64 65 66 67 69 70 72 74 76 78 80 82 84 86 87 89 90 90 91 91
38 39 40 41 43 44 45 46 47 48 49 50 51 53 55 58 60 61 60 60 61 62 63 64 65 67 70 72 75 78 81 84 86 89 91 93 95 97 99 100 101 101 101
39 40 42 43 44 45 46 48 49 50 51 53 55 57 59 61 63 65 65 65 65 64 65 66 68 71 75 79 83 86 89 92 95 98 101 103 106 108 110 111 112 112 112
39 41 42 44 45 46 47 49 50 52 53 56 58 61 63 65 67 69 69 69 68 68 70 71 74 79 83 87 92 96 99 103 106 109 112 115 117 119 119 120 120 119 119
40 41 43 44 46 47 49 50 52 54 56 59 61 63 66 68 70 71 72 73 73 72 74 77 81 87 93 98 102 107 110 114 117 119 121 121 121 121 120 119 117 116 115
40 42 44 46 47 49 50 52 54 56 59 61 64 66 68 70 71 72 75 77 80 80 80 82 88 94 101 107 113 118 121 122 122 121 118 114 111 108 105 103 102 101 99
41 43 45 47 49 51 53 54 56 59 61 64 66 68 70 71 72 75 78 81 86 90 91 91 97 103 109 116 119 121 121 118 112 106 101 96 91 88 85 84 83 83 83
42 44 47 49 51 53 55 57 59 61 64 67 69 70 71 72 75 78 82 87 92 98 102 102 107 111 113 113 111 107 103 97 90 83 78 73 71 69 68 67 67 67 68
43 46 48 50 52 54 56 59 61 64 66 68 69 70 72 75 78 83 88 93 99 105 110 113 112 110 104 98 91 84 79 75 70 65 61 59 56 55 54 53 53 54 55
45 47 49 51 53 56 58 61 63 66 68 69 70 72 75 79 83 88 94 99 105 109 112 113 107 98 87 78 71 64 59 56 55 54 52 50 49 49 48 47 47 46 46
46 48 51 53 55 58 61 63 66 68 69 70 72 76 79 84 89 95 100 105 108 109 106 101 91 80 69 61 54 49 44 43 43 44 44 43 43 43 43 43 41 40 39
47 50 52 55 57 60 63 66 67 68 69 72 75 80 84 90 96 101 105 107 106 101 93 84 73 63 55 48 43 39 36 34 35 39 38 38 40 40 40 39 38 37 36
49 51 54 57 60 63 65 66 67 69 71 75 79 84 90 95 100 104 105 102 95 87 77 67 58 51 44 40 36 35 34 32 32 36 36 35 37 36 36 34 33 32 31
51 53 56 59 62 64 65 66 68 71 75 79 84 90 95 100 103 103 98 89 79 70 62 55 48 43 38 36 33 31 31 31 32 35 34 31 32 32 32 31 29 28 26
52 55 58 61 62 64 65 67 70 74 79 84 90 95 99 101 100 96 86 75 64 56 50 46 42 38 35 34 32 32 30 29 30 35 36 32 30 29 29 28 27 25 24
54 57 59 61 62 63 66 69 73 78 83 88 94 98 100 98 93 84 73 61 51 45 41 39 38 36 35 34 34 32 31 29 28 30 34 33 30 27 27 26 25 24 22
55 58 59 60 62 65 68 73 78 82 88 92 96 98 96 89 79 69 59 49 41 37 35 33 33 34 33 33 33 34 34 32 30 28 29 29 28 24 21 23 22 21 22
Wind_Direction
274 280 284 288 291 294 295 295 295 294 293 292 291 291 291 293 294 294 294 295 294 294 293 293 291 290 289 288 287 286 284 283 281 280 278 276 274 273 272 271 270 269 268
275 279 283 287 291 293 295 296 296 295 294 294 293 292 293 293 293 293 294 293 293 292 291 289 288 286 285 284 283 282 282 281 279 278 277 275 274 273 271 270 270 269 268
275 278 282 286 289 292 294 294 295 295 295 295 295 295 295 294 294 294 293 293 291 290 289 288 286 285 283 282 281 281 280 279 278 277 276 274 273 272 271 270 269 269 268
274 278 283 286 288 290 292 293 294 295 295 295 296 296 296 295 294 294 293 292 290 289 288 287 286 284 283 282 281 281 280 279 278 277 276 275 273 272 271 270 269 268 268
274 279 283 286 288 289 291 293 294 295 296 296 296 296 296 295 295 294 293 291 290 288 287 286 285 284 284 283 283 283 282 281 280 279 278 276 275 274 272 271 270 269 268
273 278 283 287 288 290 291 293 295 296 296 295 295 295 295 294 294 293 292 291 290 289 289 288 288 288 287 287 286 285 284 283 282 281 279 278 276 275 273 272 271 269 268
274 279 284 287 288 290 292 294 296 297 296 295 295 295 294 294 293 293 293 292 292 292 292 292 291 291 290 289 289 288 286 285 284 282 281 279 277 276 274 272 271 270 268
276 281 285 287 289 292 294 295 296 297 297 296 295 293 293 293 294 294 294 294 294 294 294 294 294 293 292 291 290 289 288 286 285 284 282 280 279 277 275 274 272 270 269
277 282 286 288 290 293 294 296 297 297 297 297 296 295 293 292 290 291 293 294 295 295 295 294 294 293 292 290 289 288 287 286 285 284 282 281 279 278 277 275 273 272 270
279 283 286 289 292 294 295 296 297 298 298 298 297 297 297 296 295 293 293 293 294 294 293 293 292 291 290 289 288 287 286 286 285 284 283 281 280 279 278 276 275 273 271
280 283 287 290 293 294 296 297 298 299 298 298 298 298 298 298 298 297 296 295 295 295 294 293 292 291 290 289 288 288 287 286 285 284 283 282 281 280 279 278 276 275 273
280 284 288 292 294 296 297 299 299 299 299 299 299 298 298 298 298 298 298 297 296 295 295 294 293 292 291 291 290 290 289 288 287 286 285 284 282 281 280 278 277 276 274
282 287 290 293 295 297 298 299 299 299 299 299 299 299 299 300 300 300 299 298 297 297 296 296 295 295 294 294 293 292 292 291 289 288 287 285 284 282 280 279 277 276 274
285 289 292 294 297 298 299 299 299 299 299 299 300 300 301 302 302 301 301 300 298 297 297 298 298 298 297 296 296 294 293 292 291 289 287 285 284 282 281 279 277 275 274
287 291 294 296 297 298 298 299 299 299 300 300 301 302 303 303 303 303 302 302 302 301 300 301 300 300 299 298 297 296 294 292 291 289 287 286 284 282 280 278 276 274 272
290 293 295 296 297 298 298 299 299 300 301 302 303 304 304 304 304 304 304 304 305 304 304 304 303 302 301 300 298 297 295 294 292 291 289 287 285 282 280 278 276 273 270
292 294 295 296 297 298 299 300 301 302 303 304 305 305 305 305 305 306 306 306 306 306 306 306 305 304 302 300 298 297 296 295 294 293 292 289 287 284 282 280 277 274 272
292 294 295 297 298 299 300 302 303 304 305 305 305 305 306 306 307 307 308 308 308 308 308 307 307 305 303 302 300 298 297 297 296 296 294 293 291 290 288 285 281 278 274
293 294 296 297 299 301 303 304 305 305 306 306 306 307 308 308 309 309 309 309 309 309 309 309 308 307 306 304 303 302 301 300 299 298 298 297 296 295 293 290 287 284 280
293 295 297 299 301 303 304 305 306 306 307 308 308 309 310 310 311 311 311 311 311 311 310 310 310 310 310 308 308 307 306 305 303 302 302 303 302 301 299 296 292 288 284
295 297 300 302 304 305 306 306 307 308 308 309 310 311 311 312 312 313 313 313 313 312 311 311 312 313 313 313 313 313 312 311 309 306 308 308 306 306 305 302 299 294 289
298 300 302 304 305 306 307 307 308 309 310 311 312 312 313 313 314 314 314 314 314 313 313 314 315 316 317 317 318 318 318 317 313 308 311 312 309 309 307 306 304 301 297
301 303 304 305 306 307 308 309 310 311 312 312 313 314 314 315 315 315 315 315 314 313 314 315 317 318 319 319 321 323 323 323 319 316 318 319 314 314 312 311 310 309 306
303 304 305 306 307 308 309 310 311 312 313 314 315 315 316 316 316 316 315 315 315 314 315 316 318 320 322 323 325 327 328 329 326 321 324 327 322 320 318 318 316 314 310
304 305 306 307 308 310 311 312 313 314 314 315 316 317 317 317 317 316 316 317 316 316 316 318 320 322 324 325 327 329 330 333 332 327 327 330 329 327 324 324 325 324 321
305 306 308 309 310 311 312 313 314 315 316 317 318 318 318 317 317 317 318 318 318 318 318 318 320 321 323 325 327 329 332 334 336 333 331 332 332 333 332 331 335 335 332
Height
5799 5799 5798 5797 5796 5795 5793 5791 5790 5788 5786 5784 5783 5781 5779 5777 5775 5773 5770 5768 5766 5763 5761 5759 5757 5754 5752 5751 5749 5748 5747 5746 5745 5745 5744 5744 5743 5743 5743 5743 5743 5744 5744
5794 5793 5793 5792 5790 5788 5787 5785 5783 5781 5779 5777 5775 5773 5771 5769 5767 5764 5762 5760 5757 5755 5752 5750 5748 5746 5743 5741 5740 5738 5737 5735 5734 5734 5733 5732 5732 5732 5731 5731 5731 5732 5732
5788 5788 5787 5786 5784 5782 5781 5779 5777 5775 5773 5770 5768 5765 5763 5761 5758 5755 5753 5750 5748 5745 5742 5740 5738 5736 5733 5731 5729 5728 5726 5724 5723 5721 5720 5719 5719 5718 5718 5718 5718 5718 5718
5782 5782 5781 5780 5778 5776 5775 5773 5771 5769 5766 5764 5760 5757 5755 5752 5749 5746 5743 5740 5737 5735 5732 5729 5727 5724 5722 5720 5717 5715 5713 5711 5709 5707 5706 5705 5704 5703 5702 5702 5702 5702 5702
5776 5776 5775 5773 5772 5770 5768 5766 5764 5762 5759 5756 5753 5749 5746 5742 5739 5736 5734 5730 5727 5724 5721 5718 5715 5712 5709 5706 5704 5701 5698 5696 5694 5692 5690 5688 5687 5686 5685 5684 5684 5684 5684
5770 5769 5768 5767 5765 5763 5761 5759 5756 5754 5751 5748 5744 5740 5737 5733 5730 5727 5723 5720 5716 5713 5709 5705 5702 5698 5694 5691 5688 5685 5682 5679 5676 5674 5672 5670 5668 5667 5665 5664 5664 5664 5664
5764 5763 5761 5760 5758 5756 5754 5751 5748 5745 5742 5739 5736 5732 5728 5724 5720 5716 5712 5708 5704 5700 5695 5691 5687 5682 5678 5674 5670 5666 5663 5660 5657 5654 5652 5650 5648 5646 5645 5643 5643 5642 5642
5757 5755 5754 5752 5750 5748 5745 5742 5739 5735 5732 5729 5726 5723 5719 5716 5710 5705 5700 5696 5691 5686 5681 5675 5670 5665 5660 5656 5652 5647 5643 5640 5636 5633 5630 5627 5625 5623 5622 5620 5620 5619 5619
5749 5748 5746 5744 5742 5739 5736 5733 5729 5725 5721 5717 5714 5710 5707 5704 5702 5699 5691 5684 5678 5673 5667 5661 5654 5648 5643 5638 5633 5629 5624 5620 5616 5611 5608 5604 5601 5599 5597 5595 5594 5594 5593
5741 5740 5738 5736 5733 5730 5726 5723 5719 5715 5710 5706 5701 5696 5692 5687 5684 5684 5682 5674 5667 5660 5653 5646 5639 5632 5626 5620 5614 5609 5604 5599 5594 5588 5584 5579 5575 5572 5569 5567 5566 5565 5564
5734 5732 5729 5727 5724 5720 5716 5712 5707 5703 5698 5693 5688 5683 5678 5672 5666 5662 5662 5659 5653 5645 5637 5630 5622 5615 5607 5601 5594 5588 5581 5575 5569 5563 5557 5551 5546 5541 5537 5534 5532 5531 5530
5725 5723 5720 5717 5714 5710 5705 5700 5695 5691 5686 5680 5675 5669 5664 5658 5652 5646 5642 5639 5634 5629 5621 5613 5605 5595 5586 5578 5570 5562 5555 5547 5539 5532 5525 5518 5511 5505 5501 5497 5494 5492 5491
5716 5714 5711 5707 5703 5699 5694 5689 5684 5679 5673 5667 5661 5655 5648 5641 5634 5627 5621 5617 5614 5609 5602 5593 5583 5573 5562 5552 5542 5532 5523 5513 5504 5495 5486 5477 5469 5463 5458 5454 5451 5449 5447
5708 5705 5701 5697 5693 5688 5683 5678 5672 5666 5660 5654 5647 5640 5633 5625 5617 5608 5601 5594 5591 5589 5582 5573 5562 5548 5534 5522 5510 5498 5487 5476 5465 5454 5443 5433 5424 5416 5410 5406 5403 5402 5401
5698 5695 5691 5687 5682 5677 5672 5666 5660 5654 5647 5640 5633 5625 5617 5608 5599 5590 5581 5571 5564 5560 5560 5553 5538 5524 5506 5490 5473 5458 5444 5432 5421 5409 5399 5389 5381 5373 5367 5363 5360 5358 5358
5689 5685 5681 5676 5671 5666 5660 5654 5648 5641 5634 5626 5618 5610 5600 5592 5582 5572 5562 5552 5539 5530 5527 5525 5511 5497 5477 5456 5435 5416 5399 5386 5375 5365 5356 5348 5342 5336 5332 5328 5326 5324 5324
5680 5676 5671 5666 5660 5654 5648 5642 5635 5627 5620 5611 5602 5594 5584 5575 5565 5554 5543 5531 5518 5503 5493 5491 5478 5460 5441 5421 5402 5382 5364 5350 5340 5332 5324 5317 5312 5308 5304 5301 5298 5297 5296
5670 5665 5660 5655 5649 5642 5636 5629 5622 5614 5605 5597 5587 5578 5568 5558 5548 5536 5523 5509 5494 5476 5458 5448 5442 5424 5405 5385 5368 5354 5340 5327 5317 5309 5302 5296 5291 5287 5283 5280 5277 5275 5273
5660 5655 5650 5644 5637 5630 5623 5616 5608 5599 5590 5581 5571 5562 5551 5540 5529 5516 5502 5486 5469 5450 5429 5410 5400 5387 5373 5357 5344 5333 5322 5311 5301 5292 5286 5281 5276 5271 5267 5263 5260 5257 5256
5650 5644 5638 5632 5625 5618 5610 5603 5594 5585 5575 5565 5555 5544 5533 5521 5507 5493 5478 5460 5441 5423 5404 5385 5371 5359 5348 5337 5325 5317 5309 5300 5290 5281 5274 5269 5264 5258 5253 5249 5245 5242 5240
5639 5633 5627 5620 5613 5605 5597 5588 5580 5570 5560 5550 5539 5527 5514 5500 5484 5468 5450 5433 5413 5395 5379 5364 5353 5341 5331 5322 5314 5306 5298 5291 5283 5272 5267 5261 5254 5249 5242 5237 5232 5229 5226
5627 5621 5615 5608 5600 5592 5583 5574 5565 5555 5545 5534 5522 5509 5495 5479 5462 5445 5425 5406 5387 5369 5357 5347 5338 5329 5320 5312 5305 5297 5289 5283 5277 5268 5260 5255 5246 5240 5234 5228 5223 5218 5215
5616 5609 5602 5595 5587 5578 5569 5559 5550 5540 5529 5516 5503 5489 5474 5457 5438 5421 5405 5388 5371 5354 5342 5334 5327 5319 5312 5305 5298 5292 5284 5276 5268 5259 5253 5249 5240 5233 5226 5220 5215 5211 5206
5604 5597 5590 5582 5574 5565 5555 5546 5536 5525 5512 5498 5483 5467 5451 5435 5416 5399 5385 5371 5357 5344 5334 5325 5318 5311 5304 5297 5291 5284 5278 5271 5263 5252 5245 5240 5234 5227 5220 5214 5208 5204 5199
5593 5585 5577 5569 5561 5552 5542 5532 5521 5509 5496 5480 5463 5445 5427 5412 5396 5379 5366 5356 5345 5335 5326 5318 5311 5304 5298 5291 5284 5278 5272 5266 5260 5250 5241 5234 5227 5222 5215 5209 5203 5198 5193
5581 5573 5565 5556 5548 5538 5528 5517 5504 5492 5479 5463 5444 5424 5405 5389 5374 5361 5352 5343 5336 5328 5321 5314 5307 5300 5293 5286 5279 5272 5265 5259 5253 5247 5239 5231 5223 5217 5213 5206 5201 5195 5189